AO-07 1 07530U 74089B 22244.41071471 -.00000036 00000-0 63907-4 0 9991 2 07530 101.9118 224.5386 0011816 256.6675 259.3671 12.53656587186985 UO-11 1 14781U 84021B 22244.38807424 .00000429 00000-0 57831-4 0 9999 2 14781 97.6238 228.3878 0009955 75.1036 285.1280 14.83771302 51307 LO-19 1 20442U 90005G 22244.83299116 .00000041 00000-0 31688-4 0 9994 2 20442 98.8013 210.8881 0010859 308.5796 51.4414 14.33080642704104 HUBBLE 1 20580U 90037B 22244.80978684 .00001387 00000-0 70613-4 0 9998 2 20580 28.4708 22.7579 0002714 134.2853 16.6452 15.10806028578047 MET-2/21 1 22782U 93055A 22244.47924788 .00000082 00000-0 60531-4 0 9995 2 22782 82.5503 313.9024 0023356 132.1829 239.1231 13.83857464464524 AO-27 1 22825U 93061C 22244.56188195 .00000027 00000-0 28131-4 0 9993 2 22825 98.8827 277.1913 0008379 182.6558 177.4580 14.30188147509031 IO-26 1 22826U 93061D 22244.35682698 .00000026 00000-0 27586-4 0 9990 2 22826 98.8771 276.8567 0009148 170.2822 189.8538 14.30535981509260 FO-29 1 24278U 96046B 22244.44724107 -.00000021 00000-0 11365-4 0 9995 2 24278 98.5154 257.6798 0351375 86.1441 277.9790 13.53119059285888 NOAA-15 1 25338U 98030A 22244.82253281 .00000065 00000-0 45171-4 0 9999 2 25338 98.6403 273.3446 0011500 77.1393 283.1071 14.26166022264159 GO-32 1 25397U 98043D 22244.81877313 .00000015 00000-0 26230-4 0 9995 2 25397 98.8232 195.5092 0000420 190.6275 169.4894 14.23767677254515 ISS 1 25544U 98067A 22244.73836935 .00006177 00000-0 11609-3 0 9999 2 25544 51.6442 317.3408 0003040 185.3065 320.1738 15.50005474357050 NO-44 1 26931U 01043C 22244.36965890 .00000029 00000-0 42846-4 0 9998 2 26931 67.0496 222.4406 0006481 257.3230 102.7147 14.30727347 92265 SO-50 1 27607U 02058C 22244.12926748 .00000221 00000-0 50756-4 0 9992 2 27607 64.5540 70.3048 0081125 279.9376 79.2577 14.76214454 59751 CO-55 1 27844U 03031E 22244.46399426 .00000158 00000-0 90578-4 0 9996 2 27844 98.6804 251.0073 0008769 238.7028 121.3291 14.22485815994674 CO-57 1 27848U 03031J 22244.45075708 .00000129 00000-0 78116-4 0 9995 2 27848 98.6848 251.4977 0008568 254.8469 105.1762 14.22038517994483 RS-22 1 27939U 03042A 22244.70059827 .00000360 00000-0 72412-4 0 9990 2 27939 98.2030 25.4462 0012136 332.7294 27.3276 14.67439436 12221 NOAA-18 1 28654U 05018A 22244.83667668 .00000129 00000-0 93467-4 0 9998 2 28654 98.9441 315.1951 0015288 114.6862 245.5903 14.12770163890859 CO-58 1 28895U 05043F 22244.29473943 .00000473 00000-0 98338-4 0 9998 2 28895 98.1163 14.5486 0015329 261.7262 98.2203 14.64443653898511 Falconsat-3 1 30776U 07006E 22244.10323849 .00036038 00000-0 45725-3 0 9996 2 30776 35.4292 122.8479 0003486 339.4241 20.6352 15.58394531861377 CO-65 1 32785U 08021C 22244.46585332 .00001470 00000-0 15869-3 0 9990 2 32785 97.6645 212.9430 0012271 349.7430 10.3536 14.89800035777870 AAUSAT2 1 32788U 08021F 22244.39938116 .00001767 00000-0 15449-3 0 9990 2 32788 97.5395 227.0724 0009714 222.2247 137.8228 14.97966387779806 DO-64 1 32789U 08021G 22244.52819184 .00009870 00000-0 52778-3 0 9998 2 32789 97.3366 268.1397 0011749 67.3785 292.8690 15.15206885783543 CO-66 1 32791U 08021J 22244.38619578 .00001353 00000-0 13541-3 0 9993 2 32791 97.6183 218.2800 0011165 301.5857 58.4272 14.92978155778520 RS-30 1 32953U 08025A 22244.83716248 .00000024 00000-0 10000-3 0 9990 2 32953 82.5052 136.4502 0020049 91.4862 268.8514 12.43112722647828 PRISM 1 33493U 09002B 22244.85415018 .00003115 00000-0 25305-3 0 9997 2 33493 98.2341 235.7968 0014551 298.0426 61.9324 15.00356492740447 NOAA-19 1 33591U 09005A 22244.84657962 .00000072 00000-0 63938-4 0 9998 2 33591 99.1430 280.5696 0013417 337.4145 22.6434 14.12603985699237 SRMSAT 1 37841U 11058D 22244.45862183 .00000348 00000-0 46301-4 0 9992 2 37841 19.9712 155.4893 0011998 99.4724 57.7705 14.10768002562218 HRBE 1 37855U 11061F 22244.42695752 .00009438 00000-0 40499-3 0 9994 2 37855 101.7199 43.8224 0150566 194.6156 165.0683 15.13429614592726 RS-40 1 38735U 12041C 22244.58359353 .00000001 00000-0 -63990-4 0 9992 2 38735 82.4752 218.0197 0016340 202.3034 157.7336 12.42586760457977 ZACUBE-1 1 39417U 13066B 22244.43668184 .00001149 00000-0 14526-3 0 9990 2 39417 97.6434 212.5403 0058175 153.9911 206.4246 14.82541177474381 Delfi-N3xt 1 39428U 13066N 22244.32305558 .00001872 00000-0 29211-3 0 9993 2 39428 97.8145 175.4313 0118098 35.8565 325.0496 14.69420577469671 GOMX-1 1 39430U 13066Q 22244.78787198 .00000421 00000-0 83477-4 0 9994 2 39430 97.8026 147.6114 0149043 163.6916 196.9167 14.60320381467431 LO-74 1 39440U 13066AA 22244.39303142 .00000954 00000-0 13559-3 0 9999 2 39440 97.7319 198.7890 0076923 244.7390 114.5836 14.77208678471499 AO-73 1 39444U 13066AE 22244.39698111 .00001386 00000-0 16933-3 0 9995 2 39444 97.6314 214.9191 0057306 141.9647 218.5636 14.83660414472782 SPROUT 1 39770U 14029E 22244.67273587 .00003159 00000-0 32030-3 0 9990 2 39770 97.9498 2.1486 0008074 187.7691 172.3449 14.91615008449027 DTUSAT-2 1 40030U 14033W 22244.79614746 .00000973 00000-0 10629-3 0 9996 2 40030 97.9378 177.8861 0012099 155.1878 204.9923 14.90188575445523 EO-80 1 40032U 14033Y 22244.36692044 .00001219 00000-0 13168-3 0 9993 2 40032 97.9383 177.4694 0011941 157.7184 202.4555 14.90160974444924 HODOYOSHI-1 1 40299U 14070B 22244.81217759 .00003046 00000-0 11571-3 0 9991 2 40299 97.2378 310.6994 0011016 220.2103 277.4525 15.27509931434716 FIREBIRD FU3 1 40377U 15003B 22244.45586676 .00011972 00000-0 34102-3 0 9994 2 40377 99.0879 126.4036 0097544 126.8041 234.2195 15.31603852420059 FIREBIRD FU4 1 40378U 15003C 22244.21515879 .00012560 00000-0 35649-3 0 9997 2 40378 99.0882 126.3366 0097468 127.2454 233.7723 15.31701620420016 GRIFEX 1 40379U 15003D 22244.16458732 .00006958 00000-0 24097-3 0 9995 2 40379 99.1015 111.3339 0113055 172.4519 187.8449 15.24342796419159 XW-2A 1 40903U 15049E 22244.79726293 .00016710 00000-0 23907-3 0 9993 2 40903 97.1714 303.5626 0009049 185.6508 311.9039 15.56235196391122 XW-2C 1 40906U 15049H 22244.86518584 .00003296 00000-0 15727-3 0 9992 2 40906 97.4951 247.7073 0015625 92.7711 25.2612 15.19679797384523 XW-2D 1 40907U 15049J 22244.85368265 .00003741 00000-0 17435-3 0 9994 2 40907 97.4940 247.7468 0014922 88.6052 31.0036 15.20419716384576 LILACSAT-2 1 40908U 15049K 22244.86535049 .00001908 00000-0 10218-3 0 9997 2 40908 97.5198 244.7202 0016929 110.0966 10.8134 15.16133693384069 XW-2E 1 40909U 15049L 22244.83172660 .00006105 00000-0 24977-3 0 9992 2 40909 97.4657 252.4330 0013699 70.8927 51.8325 15.24619142385041 XW-2F 1 40910U 15049M 22244.85179491 .00006084 00000-0 25281-3 0 9990 2 40910 97.4736 251.6066 0014709 71.5913 51.0895 15.24082539384816 XW-2B 1 40911U 15049N 22244.88406760 .00003671 00000-0 17175-3 0 9998 2 40911 97.4928 248.3513 0014831 89.3789 27.2539 15.20299745384460 DCBB 1 40912U 15049P 22244.82812705 .00007182 00000-0 27017-3 0 9990 2 40912 97.4371 255.9303 0013683 40.8323 84.0479 15.27358520385407 TW-1A 1 40928U 15051D 22244.88696822 .00041151 00000-0 40830-3 0 9998 2 40928 97.0339 267.1639 0009300 100.7173 21.6297 15.65630038390175 IO-86 1 40931U 15052B 22244.69534954 .00000802 00000-0 22352-4 0 9997 2 40931 6.0018 345.2314 0012496 170.6385 189.3965 14.76848998374636 AO-85 1 40967U 15058D 22243.51289541 .00000316 00000-0 51554-4 0 4666 2 40967 64.7731 203.5535 0185539 176.1379 184.1213 14.77658224 71750 ATHENOXAT-1 1 41168U 15077C 22244.72940603 .00008747 00000-0 33371-3 0 9991 2 41168 14.9925 244.3535 0008642 236.3557 292.2440 15.22486967371946 ChubuSat-2 1 41338U 16012B 22244.45076211 .00001339 00000-0 94117-4 0 9991 2 41338 31.0021 259.9213 0013348 187.2182 172.8263 15.01584316358916 ChubuSat-3 1 41339U 16012C 22244.46229538 .00000918 00000-0 62352-4 0 9993 2 41339 31.0112 256.7644 0013131 196.0811 284.2859 15.01644134358912 Horyu-4 1 41340U 16012D 22244.32138236 .00001857 00000-0 12581-3 0 9995 2 41340 31.0033 234.4673 0013299 235.6801 124.2576 15.03664220359151 e-st@r-II 1 41459U 16025D 22244.74691436 .00005213 00000-0 22118-3 0 9999 2 41459 98.1924 55.6646 0141307 10.6358 349.7814 15.14937896349048 AAUSAT4 1 41460U 16025E 22244.47633047 .00009089 00000-0 33205-3 0 9999 2 41460 98.1845 62.3128 0120178 345.0118 14.7603 15.21742565349493 LO-87 1 41557U 16033B 22244.77165789 .00009001 00000-0 25690-3 0 9994 2 41557 97.3902 342.6888 0011833 103.6344 55.7723 15.36197566349093 NuSat2 1 41558U 16033C 22244.76929293 .00009119 00000-0 24506-3 0 9997 2 41558 97.4117 348.8162 0011315 94.3085 57.0178 15.38074345349370 Lapan A3 1 41603U 16040E 22244.89140551 .00000733 00000-0 36171-4 0 9997 2 41603 97.2008 278.5765 0011490 249.4169 187.7956 15.20836546343656 Pratham 1 41783U 16059A 22244.52934943 .00000276 00000-0 61983-4 0 9993 2 41783 97.9079 283.0170 0032043 294.6143 65.1722 14.63411737316750 TY-1 1 41844U 16066D 22244.82143813 .00008632 00000-0 28152-3 0 9994 2 41844 97.3889 256.5606 0013176 26.3881 90.4761 15.31959837323290 CAS-2T 1 41847U 16066G 22244.77801255 .00000230 00000-0 44994-4 0 9991 2 41847 98.5449 309.3446 0363037 341.7421 17.1007 14.38705013305329 EO-88 1 42017U 17008BX 22244.41144225 .00012070 00000-0 33950-3 0 9990 2 42017 97.2621 309.5079 0003736 352.4304 7.6883 15.36629210308734 CAS-4B 1 42759U 17034B 22244.54867059 .00001780 00000-0 11371-3 0 9992 2 42759 43.0176 273.1237 0008744 40.4328 92.0118 15.12333067287873 CAS-4A 1 42761U 17034D 22244.58172446 .00001583 00000-0 10232-3 0 9994 2 42761 43.0169 271.6757 0008938 44.0413 97.3682 15.12415384287886 NIUSat 1 42766U 17036B 22244.35031401 .00005601 00000-0 21090-3 0 9990 2 42766 97.1965 279.4920 0014831 62.8895 297.3856 15.27387616288387 Aalto 1 1 42775U 17036L 22244.36467173 .00004621 00000-0 17964-3 0 9996 2 42775 97.1920 279.2910 0013824 62.6447 297.6197 15.26434607288357 URSA MAIOR 1 42776U 17036M 22244.38115943 .00005285 00000-0 20113-3 0 9991 2 42776 97.1935 280.1157 0013432 61.5859 298.6732 15.27082013288399 Max Valier Sat 1 42778U 17036P 22244.37859780 .00005336 00000-0 19774-3 0 9994 2 42778 97.1991 282.8977 0012148 62.9959 297.2520 15.27972064288496 Pegasus 1 42784U 17036V 22244.39515573 .00007828 00000-0 26991-3 0 9999 2 42784 97.1930 283.9122 0011347 63.5770 296.6634 15.30196612288623 NUDATSat 1 42787U 17036Y 22244.57644303 .00012815 00000-0 36699-3 0 9994 2 42787 97.1966 288.8070 0009352 52.3023 307.9090 15.36012640288773 SUCHAI 1 1 42788U 17036Z 22244.36114208 .00009385 00000-0 30304-3 0 9993 2 42788 97.1934 285.7317 0010380 59.6217 300.6050 15.32273549288800 SKCUBE 1 42789U 17036AA 22244.07221546 .00008070 00000-0 26852-3 0 9999 2 42789 97.1933 284.8246 0010586 61.4170 298.8136 15.31353132288649 VZLUSAT 1 1 42790U 17036AB 22244.39677742 .00014095 00000-0 40599-3 0 9997 2 42790 97.1954 288.5805 0008895 53.7525 306.4540 15.35813538288891 VENTA 1 1 42791U 17036AC 22244.52971527 .00009176 00000-0 31203-3 0 9997 2 42791 97.1937 285.0853 0010392 60.9169 299.3112 15.30610380288695 Robusta 1B 1 42792U 17036AD 22244.39179943 .00009697 00000-0 31581-3 0 9992 2 42792 97.1933 285.7582 0010070 60.4271 299.7973 15.31994277288746 D-SAT 1 42794U 17036AF 22244.22519977 .00001187 00000-0 10416-3 0 9991 2 42794 97.4540 245.6589 0122157 190.6641 169.1986 14.92905725282782 TechnoSat 1 42829U 17042E 22244.81006077 .00000710 00000-0 75027-4 0 9995 2 42829 97.4136 94.4709 0015416 109.6697 250.6188 14.92005304279472 AO-91 1 43017U 17073E 22244.48270810 .00002949 00000-0 22512-3 0 9996 2 43017 97.6637 135.5516 0245646 298.9963 58.6830 14.81894685258373 PICSAT 1 43132U 18004X 22244.18242948 .00010268 00000-0 32380-3 0 9994 2 43132 97.3674 320.2177 0008764 91.9806 268.2440 15.33032458258006 AO-92 1 43137U 18004AC 22244.15811226 .00007128 00000-0 24361-3 0 9998 2 43137 97.3635 318.6777 0009094 94.9567 265.2712 15.30552221257920 TianYi 2 1 43155U 18008A 22244.81636275 .00004120 00000-0 21649-3 0 9999 2 43155 97.3461 300.7775 0014608 235.3210 236.4182 15.16142879254847 Zhou Enlai 1 43156U 18008B 22244.84350381 .00003685 00000-0 19525-3 0 9999 2 43156 97.3516 300.7044 0011846 235.6532 246.5578 15.15947585254778 TianYi 6 1 43158U 18008D 22244.80551111 .00003795 00000-0 20755-3 0 9990 2 43158 97.3492 298.4866 0011153 236.0811 187.2276 15.14805180254661 S-Net D 1 43186U 18014G 22244.30919806 .00000395 00000-0 38222-4 0 9994 2 43186 97.6508 148.5829 0012185 47.7486 312.4767 14.98118772250273 S-Net B 1 43187U 18014H 22244.30942977 .00000392 00000-0 37948-4 0 9991 2 43187 97.6504 148.5310 0012142 47.6611 312.5638 14.98116508250270 S-Net A 1 43188U 18014J 22244.30973376 .00000385 00000-0 37375-4 0 9995 2 43188 97.6509 148.5990 0012145 47.7530 312.4721 14.98115985250274 S-Net C 1 43189U 18014K 22244.31056938 .00000361 00000-0 35340-4 0 9997 2 43189 97.6502 148.5199 0012084 47.5045 312.7196 14.98112419248826 FMN 1 1 43192U 18015A 22244.77821432 .00022097 00000-0 52240-3 0 9998 2 43192 97.5435 32.1834 0010541 118.2648 349.1932 15.41785442255190 Shaonian Xing 1 43199U 18015H 22244.76458855 .00011979 00000-0 34049-3 0 9993 2 43199 97.5229 26.5906 0013467 127.6220 339.9131 15.36228306255154 SurfSat 1 43614U 18070B 22244.44231024 .00034938 00000-0 42335-3 0 9995 2 43614 93.0217 131.1198 0013141 80.7523 279.5228 15.60431405222898 CP-7 DAVE 1 43615U 18070C 22244.46139129 .00031438 00000-0 40884-3 0 9990 2 43615 93.0204 130.8966 0013808 82.7933 277.4901 15.58564253222857 ELFIN-B 1 43616U 18070D 22244.60637582 .00222418 00000-0 88194-3 0 9999 2 43616 93.0070 132.9540 0009753 84.1391 276.1000 15.86115158223346 ELFIN-A 1 43617U 18070E 22244.65113588 .00325813 41517-4 83861-3 0 9991 2 43617 93.0110 134.6093 0008002 97.7258 262.4935 15.95148035223437 CubeBel-1 1 43666U 18083E 22244.89495600 .00005777 00000-0 23868-3 0 9996 2 43666 97.4167 272.7559 0014535 68.6598 9.8434 15.24297806213129 Changshagaoxin 1 43669U 18083H 22244.76571730 .00005223 00000-0 22700-3 0 9994 2 43669 97.4117 268.3689 0011211 68.9256 47.7195 15.22663271212916 Ten-Koh 1 43677U 18084G 22244.37221993 .00000807 00000-0 86838-4 0 9990 2 43677 97.9741 15.1609 0016292 25.9390 334.2641 14.91251259208996 PO-101 1 43678U 18084H 22244.69132336 .00000681 00000-0 72504-4 0 9993 2 43678 97.9815 18.8984 0010722 40.4872 319.7137 14.92275313209227 IRVINE 01 1 43693U 18088D 22244.09437478 .00023554 00000-0 54446-3 0 9991 2 43693 85.0241 259.3705 0012542 167.0299 193.1279 15.42283015211867 QO-100 1 43700U 18090A 22244.24354976 .00000146 00000-0 00000-0 0 9997 2 43700 0.0175 135.3168 0002013 59.0168 259.5084 1.00272403 13782 Reaktor Hello World 1 43743U 18096AA 22244.16250223 .00009504 00000-0 27713-3 0 9991 2 43743 97.3486 323.7778 0015539 143.6849 216.5452 15.35454033209576 MinXSS-2 1 43758U 18099A 22244.42048291 .00001291 00000-0 11484-3 0 9992 2 43758 97.6196 310.5019 0015427 16.5860 343.5864 14.97709707204472 AO-95 1 43770U 18099N 22244.40988923 .00001495 00000-0 13556-3 0 9997 2 43770 97.6155 308.7794 0014756 27.6431 332.5572 14.96726112204372 RANGE-B 1 43772U 18099Q 22244.43728929 .00001310 00000-0 11740-3 0 9999 2 43772 97.6263 310.6658 0013760 12.1346 348.0205 14.97425375204400 RANGE-A 1 43773U 18099R 22244.48835210 .00000788 00000-0 74779-4 0 9997 2 43773 97.6074 307.6136 0013520 14.5856 345.5753 14.96241517204362 MOVE-II 1 43780U 18099Y 22244.43301881 .00002956 00000-0 25355-3 0 9996 2 43780 97.6184 310.1213 0013059 20.0059 340.1673 14.98197233204438 SNUSat 2 1 43782U 18099AA 22244.18164261 .00001345 00000-0 12216-3 0 9992 2 43782 97.6149 309.0394 0012331 13.8449 346.3109 14.96864015204364 SnugLite 1 43784U 18099AC 22244.14098154 .00001667 00000-0 14912-3 0 9999 2 43784 97.6121 308.6306 0015093 21.7996 338.3865 14.97110945204386 ITASat 1 1 43786U 18099AE 22244.19625348 .00001613 00000-0 14552-3 0 9998 2 43786 97.6178 309.5297 0015013 21.0337 339.1499 14.96828018204381 EAGLET 1 1 43790U 18099AJ 22244.41806086 .00000783 00000-0 72971-4 0 9995 2 43790 97.6176 310.2876 0013663 23.8791 336.3062 14.96961009204157 ESEO 1 43792U 18099AL 22244.45057068 .00000891 00000-0 83757-4 0 9993 2 43792 97.6119 309.4226 0013420 21.0369 339.1402 14.96308755204193 CSIM 1 43793U 18099AM 22244.43878564 .00003006 00000-0 25339-3 0 9996 2 43793 97.6187 311.1019 0012291 9.9470 350.1994 14.98871214204266 Astrocast 0.1 1 43798U 18099AS 22244.42354290 .00001596 00000-0 13978-3 0 9993 2 43798 97.6190 310.8761 0011950 1.5465 358.5792 14.98027063204485 JO-97 1 43803U 18099AX 22244.45462171 .00002151 00000-0 18966-3 0 9991 2 43803 97.6135 309.5604 0014628 18.5098 341.6654 14.97388358204449 Suomi 100 1 43804U 18099AY 22244.41095164 .00001607 00000-0 14332-3 0 9990 2 43804 97.6142 309.4242 0015155 19.8277 340.3531 14.97279722204448 Al Farabi 2 1 43805U 18099AZ 22244.63444305 .00000939 00000-0 84397-4 0 9996 2 43805 97.6163 310.2170 0015152 15.4881 344.6803 14.97922607204505 CHOMPTT 1 43855U 18104G 22244.34074631 .00006211 00000-0 22172-3 0 9998 2 43855 85.0388 0.5149 0013467 322.4702 37.5602 15.28551645206316 ISAT 1 43879U 18111D 22244.27002283 .00001761 00000-0 15250-3 0 9992 2 43879 97.6562 148.5005 0013715 68.9454 291.3234 14.98327932201021 UWE-4 1 43880U 18111E 22244.73326648 .00001991 00000-0 17121-3 0 9993 2 43880 97.6593 149.7035 0012710 67.0478 293.2085 14.98471537199126 Sparrow 1 43881U 18111F 22244.67565220 .00002391 00000-0 20377-3 0 9990 2 43881 97.6606 149.9029 0013109 66.7803 293.4799 14.98642248199121 Lume 1 1 43908U 18111AJ 22244.26228479 .00006423 00000-0 21232-3 0 9998 2 43908 97.1794 129.7048 0018707 157.1724 203.0354 15.31528335204991 FO-99 1 43937U 19003F 22244.35466610 .00008275 00000-0 26736-3 0 9993 2 43937 97.1257 274.8117 0018166 238.2231 121.7242 15.32181519201594 MYSat 1 1 44045U 18092F 22244.54103446 .00048938 00000-0 56794-3 0 9994 2 44045 51.6299 51.1491 0006043 19.0103 341.1115 15.61257300199734 AstroCast 0.2 1 44083U 19018F 22244.15916350 .00006880 00000-0 25341-3 0 9992 2 44083 97.3150 301.6238 0009331 208.6157 151.4571 15.28106993190046 AISTechSat 3 1 44103U 19018AB 22244.44987870 .00007527 00000-0 27298-3 0 9994 2 44103 97.3014 302.2221 0010840 218.5924 141.4543 15.28571548190259 AISat 1 1 44104U 19018AC 22244.19986273 .00005544 00000-0 15255-3 0 9990 2 44104 97.3928 327.6670 0050152 220.4483 139.3029 15.36322237191226 Prox-1 1 44339U 19036A 22244.23921165 .00002055 00000-0 41575-3 0 9992 2 44339 24.0007 74.9092 0010940 326.1859 33.7935 14.55393915169402 Oculus-ASR 1 44348U 19036K 22244.52438318 .00059803 -51650-5 49773-3 0 9991 2 44348 28.5011 24.2753 0216920 90.3225 272.2232 15.43572170176285 NO-104 1 44354U 19036R 22244.56608359 .00062546 -51291-5 48696-3 0 9998 2 44354 28.5243 7.7482 0206228 113.3701 248.8735 15.46885666176455 Move-IIb 1 44398U 19038N 22244.56060666 .00007140 00000-0 33348-3 0 9994 2 44398 97.6355 214.6973 0018983 220.0630 139.9207 15.19972432174599 SONATE 1 44400U 19038Q 22244.87894122 .00002488 00000-0 13558-3 0 9995 2 44400 97.6453 213.7794 0021734 227.2716 132.6690 15.15176431174503 BeeSat 9 1 44412U 19038AC 22244.61911828 .00006571 00000-0 32708-3 0 9998 2 44412 97.6424 214.5386 0018276 226.7481 133.2228 15.17805787174240 JAISAT-1 1 44419U 19038F 22244.38336416 .00004873 00000-0 24036-3 0 9991 2 44419 97.6426 215.1969 0017365 224.1564 135.8284 15.18273670174572 LightSail-2 1 44420U 19036AC 22244.37578805 .00057920 00000-0 60910-2 0 9991 2 44420 23.9991 350.2838 0013368 79.9739 280.2267 14.87926817168378 Taurus 1 1 44530U 19059C 22244.82034195 .00001012 00000-0 28880-3 0 9999 2 44530 98.5498 344.0870 0012427 244.4819 115.5102 14.47301444156891 Duchifat 3 1 44854U 19089C 22244.72660710 .00002043 00000-0 16116-3 0 9992 2 44854 36.9678 8.0223 0006774 113.4840 246.6627 15.01468473149406 OPS-SAT 1 44878U 19092F 22244.46499104 .00007555 00000-0 34214-3 0 9992 2 44878 97.4820 67.8245 0013520 77.0013 283.2732 15.21082981149743 TO-108 1 44881U 19093C 22244.81795535 .00000249 00000-0 38263-4 0 9995 2 44881 97.8900 322.9229 0013820 301.0443 58.9408 14.81795780146081 FloripaSat 1 1 44885U 19093G 22244.84490588 .00000839 00000-0 10876-3 0 9996 2 44885 97.8940 324.4415 0013211 306.5059 53.4934 14.83351324146178 RS-44 1 44909U 19096E 22244.34085478 .00000038 00000-0 10075-3 0 9991 2 44909 82.5248 179.8657 0217955 142.0578 219.6110 12.79714509125212 BY70-2 1 45857U 20042B 22244.81364435 .00003281 00000-0 43474-3 0 9994 2 45857 97.9534 320.9567 0009688 221.2168 138.8336 14.80538793116753 UPMSat 2 1 46276U 20061E 22244.61907241 .00003350 00000-0 16498-3 0 9990 2 46276 97.3860 313.7076 0000330 139.2220 220.9039 15.18638745110434 AmicalSat 1 46287U 20061R 22244.13886912 .00003268 00000-0 18731-3 0 9990 2 46287 97.4406 312.0798 0003172 45.9538 314.1954 15.13271918109911 SALSAT 1 46495U 20068K 22244.44161334 .00001933 00000-0 14118-3 0 9998 2 46495 97.7331 185.7910 0017117 25.7854 334.4222 15.04769921105616 BY70-3 1 46839U 20079N 22244.81923898 .00017226 00000-0 36926-3 0 9997 2 46839 97.1928 316.0404 0006149 67.0354 43.4428 15.44790217102021 CAPE 3 1 47309U 21002A 22244.52050413 .00007638 00000-0 30177-3 0 9997 2 47309 60.6826 78.1708 0033688 29.5086 330.7894 15.25888138 90059 AO-109 1 47311U 21002C 22244.81173199 .00005112 00000-0 20403-3 0 9995 2 47311 60.6843 74.5795 0029861 30.6938 329.5889 15.26278250 90121 MiTEE 1 1 47314U 21002F 22244.52907142 .00013365 00000-0 42990-3 0 9993 2 47314 60.6815 66.6956 0026746 23.1444 337.0845 15.32251600 90248 ExoCube 2 1 47319U 21002L 22244.57053237 .00006760 00000-0 26952-3 0 9991 2 47319 60.6829 76.7309 0031060 31.0535 329.2381 15.25826782 90021 UVSQ-SAT 1 47438U 21006AB 22244.11708660 .00003741 00000-0 19577-3 0 9995 2 47438 97.4303 301.5844 0011965 20.7030 339.4685 15.16387605 88740 YUSAT 1 1 47439U 21006AC 22244.45823993 .00006077 00000-0 31075-3 0 9992 2 47439 97.4312 302.0775 0011612 19.6043 340.5634 15.16954951 88808 SOMP 2b 1 47445U 21006AJ 22244.46247316 .00004212 00000-0 22223-3 0 9993 2 47445 97.4278 301.5227 0011773 23.9708 336.2071 15.16026472 88788 IDEASSat 1 47458U 21006AX 22244.51849974 .00005041 00000-0 26658-3 0 9998 2 47458 97.4366 302.1444 0010884 22.8748 337.2967 15.15863693 88780 CubeSX-Sirius-HSE 1 47951U 21022V 22244.81973725 .00001713 00000-0 11523-3 0 9996 2 47951 97.5206 142.7287 0019400 243.3649 189.0821 15.07928697 79507 CubeSX-HSE 1 47952U 21022W 22244.79833323 .00002596 00000-0 17220-3 0 9993 2 47952 97.5212 142.7330 0019462 242.8422 158.0309 15.07992023 79506 KSU-Cubesat 1 47954U 21022Y 22244.41057822 .00003832 00000-0 25037-3 0 9995 2 47954 97.5208 142.4864 0018829 243.5266 116.4031 15.08264845 79170 GRBAlpha 1 47959U 21022AD 22244.80388245 .00002776 00000-0 18368-3 0 9994 2 47959 97.5212 142.7819 0019339 242.7581 205.4454 15.08023181 78321 Orbicraft-Zorkiy 1 47960U 21022AE 22244.83675786 .00002056 00000-0 13653-3 0 9991 2 47960 97.5234 142.9831 0018618 243.2966 204.3204 15.08192312 79027 STECCO 1 47962U 21022AG 22244.87690755 .00003490 00000-0 21587-3 0 9998 2 47962 97.5190 143.9009 0014020 234.1477 188.3691 15.10408192 78408 DO-111 1 47963U 21022AH 22244.46152929 .00012454 00000-0 66180-3 0 9998 2 47963 97.5228 145.0127 0014341 224.8597 135.1477 15.15348472 78456 MO-110 1 47964U 21022AJ 22244.29417890 .00003625 00000-0 22141-3 0 9990 2 47964 97.5206 143.6355 0016528 232.3584 127.6146 15.10807046 78337 FEES 1 48082U 21022AL 22244.45743638 .00007707 00000-0 45658-3 0 9995 2 48082 97.5217 143.7925 0012685 226.3934 133.6245 15.11611071 78066 RamSat 1 48850U 98067SL 22244.34826863 .00129326 00000-0 56318-3 0 9998 2 48850 51.6344 286.4536 0006667 15.8363 344.2847 15.83843108 69306 TUBIN 1 48900U 21059X 22244.84595064 .00002481 00000-0 13880-3 0 9991 2 48900 97.5639 13.5969 0009673 192.1691 318.9842 15.14365576 65479 IT-SPINS 1 49017U 21013G 22244.42560995 .00007407 00000-0 28204-3 0 9999 2 49017 51.5991 35.7639 0007961 351.1037 8.9799 15.27709968 65398 LEDSAT 1 49069U 21073D 22244.84341501 .00001651 00000-0 10714-3 0 9990 2 49069 97.5189 316.2254 0027603 35.9058 324.4019 15.09141184 57357 CUTE 1 49263U 21088D 22244.14129915 .00003360 00000-0 24956-3 0 9990 2 49263 97.5820 310.5523 0020452 164.5724 195.6129 15.03537138 50798 Binar-1 1 49272U 98067SR 22244.37117739 .00183809 00000-0 66762-3 0 9995 2 49272 51.6275 289.5293 0006188 4.8791 355.2272 15.87436878 51652 CUAVA-1 1 49275U 98067SU 22242.48134796 .24583722 12476-4 25807-3 0 9993 2 49275 51.6069 289.8805 0011981 165.6488 331.0164 16.49780575 51426 TeikyoSat 4 1 49396U 21102B 22244.57042872 .00001384 00000-0 11337-3 0 9990 2 49396 97.5267 300.2176 0017211 2.5794 357.5516 15.00782007 44467 Z-Sat 1 49399U 21102E 22244.80965879 .00000416 00000-0 35483-4 0 9994 2 49399 97.5313 301.4860 0021844 336.5744 23.4484 15.02768822 44551 KOSEN 1 1 49402U 21102H 22244.41807170 .00001023 00000-0 78392-4 0 9996 2 49402 97.5243 301.2758 0020850 326.8838 33.1081 15.03873061 44525 HO-113 1 50466U 21131B 22244.82324227 .00000016 00000-0 19676-4 0 9993 2 50466 98.5771 322.0297 0003316 281.3403 78.7412 14.38517489 35893 Tevel 1 50999U 22002R 22244.85877118 .00004552 00000-0 24205-3 0 9999 2 50999 97.4752 310.7216 0012024 148.1347 324.8103 15.15706653 34990 Grizu-263a 1 51025U 22002AT 22244.62986094 .00011214 00000-0 54858-3 0 9999 2 51025 97.4916 311.5026 0013425 154.2200 205.9706 15.18294828 34990 NO-116 1 51031U 22002AZ 22244.45744535 .00008554 00000-0 43560-3 0 9990 2 51031 97.4873 310.9823 0013626 154.9587 205.2310 15.16961730 34956 IRIS-A 1 51044U 22002BN 22244.81962102 .00002366 00000-0 13405-3 0 9996 2 51044 97.4761 310.3230 0009956 152.6594 207.5164 15.13937825 34964 DELFI-PQ 1 51074U 22002CU 22244.43604342 .00006691 00000-0 32623-3 0 9994 2 51074 97.5000 311.8538 0013568 183.6270 176.4868 15.18573548 34980 SO-115 1 51080U 22002DA 22244.12675806 .00005020 00000-0 25368-3 0 9993 2 51080 97.5014 311.3870 0013363 185.0615 175.0485 15.17448480 34927 SO-114 1 51081U 22002DB 22244.45686907 .00006869 00000-0 34565-3 0 9995 2 51081 97.5005 311.6884 0013724 183.7605 176.3527 15.17458873 34974 OreSat0 1 52017U 22026K 22244.42758535 .00006048 00000-0 31731-3 0 9996 2 52017 97.5057 243.3417 0027165 15.5783 344.6280 15.15796841 25690 Planetum 1 1 52738U 22057G 22244.54567979 .00004799 00000-0 27898-3 0 9993 2 52738 97.5182 358.0017 0006895 268.7955 91.2486 15.12537618 14939 Foresail-1 1 52766U 22057AL 22244.82014194 .00002270 00000-0 12946-3 0 9991 2 52766 97.5284 358.5954 0012258 247.3586 264.8226 15.13734442 14981 SNUGLITE 2 1 52899U 22065F 22244.86485011 .00000273 00000-0 68516-4 0 9997 2 52899 98.0288 33.6428 0008960 44.6146 315.5784 14.58397368 8830 CTIM 1 52950U 22074G 22244.41973870 .00007080 00000-0 29391-3 0 9991 2 52950 45.0145 145.8327 0002953 234.6670 125.3944 15.24509274 9320 MTCube 2 1 53106U 22080B 22241.84455576 -.00000003 00000-0 00000-0 0 9996 2 53106 70.1491 60.9382 0008126 247.0504 112.9321 6.42558378 3039 AstroBioCubeSat 1 53107U 22080C 22243.59069702 -.00000003 00000-0 00000-0 0 9993 2 53107 70.1434 60.3703 0013836 238.7815 121.1557 6.42110795 3056 GREENCUBE 1 53109U 22080E 22244.79974173 -.00000003 00000-0 00000 0 0 9994 2 53109 70.1407 59.7135 0009420 233.1134 126.8663 6.42584037 3117 CELESTA 1 53111U 22080G 22209.16019017 -.00000003 00000-0 00000-0 0 9997 2 53111 70.1517 72.3224 0015664 220.2144 139.7964 6.42532870 816 RS4S 1 53306U 98067TR 22244.80621049 .00029004 00000-0 46591-3 0 9994 2 53306 51.6417 316.6047 0000915 175.7674 184.3324 15.52780726 6556 RS3S 1 53308U 98067TT 22244.67689233 .00034337 00000-0 55015-3 0 9996 2 53308 51.6416 317.2415 0000899 144.8207 215.2842 15.52764482 6597 RS1S 1 53309U 98067TU 22244.67567520 .00032957 00000-0 52692-3 0 9995 2 53309 51.6413 317.2315 0001237 195.2696 164.8257 15.52844284 6546 RS5S 1 53310U 98067TV 22244.67648879 .00034483 00000-0 55269-3 0 9993 2 53310 51.6417 317.2394 0000954 199.7780 160.3174 15.52752291 6575 RS6S 1 53311U 98067TW 22244.80179949 .00030168 00000-0 48058-3 0 9990 2 53311 51.6412 316.5737 0000941 116.4114 243.6973 15.52991630 6616 RS9S 1 53312U 98067TX 22244.67423983 .00032132 00000-0 51300-3 0 9993 2 53312 51.6417 317.2225 0001407 202.0760 158.0169 15.52896386 6538 RS12S 1 53313U 98067TY 22244.67306316 .00031329 00000-0 49978-3 0 9999 2 53313 51.6416 317.2152 0001004 218.0764 142.0155 15.52932366 6583 /EX
